Vorticity
1 12 4 20 26 2 2 10 5 6 8 3 3 -0 7 11 5 -1 5 5 13 14 14 23 7 2 1 0 7 4 13 2 6 22 9 5 5 9
19 7 14 12 4 2 5 5 9 1 4 6 7 0 8 9 12 4 14 10 8 10 1 4 7 5 4 7 9 5 8 9 22 9 7 5 10 9
-9 -18 14 2 2 1 25 -0 14 17 5 5 5 16 7 12 12 31 23 9 -6 3 9 7 12 10 10 12 12 14 8 20 14 8 3 6 7 5
12 16 1 -1 -3 35 0 -1 -19 -2 21 -21 4 -5 6 14 8 -3 15 14 8 0 7 12 11 20 11 7 6 14 24 7 7 6 11 11 11 7
10 20 -2 16 36 -3 -37 -1 -2 2 8 6 10 26 10 -3 9 10 9 4 10 10 7 12 4 8 5 5 17 5 12 10 7 13 10 7 5 5
-1 -11 -3 -26 -6 2 8 8 5 8 8 7 4 10 -1 -6 11 17 13 12 21 22 16 7 -2 -5 18 12 10 9 5 11 11 6 5 5 5 2
15 22 6 5 4 4 6 4 22 13 6 12 19 14 6 25 23 28 23 20 5 6 7 6 10 12 18 11 8 7 11 6 6 7 5 5 3 1
3 -1 4 5 8 11 9 41 -13 -4 21 14 12 17 19 -0 2 3 9 9 7 14 13 8 20 15 11 8 7 9 6 7 8 3 5 2 2 3
17 23 18 20 16 15 16 14 -10 16 -6 5 -2 9 29 20 19 13 20 7 10 3 20 15 8 7 7 8 7 7 8 5 3 4 3 3 5 5
12 10 11 10 11 15 14 27 32 14 9 15 22 12 4 15 1 7 4 7 8 16 5 3 5 8 10 9 7 6 3 5 5 4 4 5 6 6
10 10 12 19 21 20 13 -1 1 17 14 12 9 16 -0 9 5 6 11 8 0 14 13 6 5 12 7 8 5 1 5 5 5 4 7 7 6 3
16 17 18 18 19 20 26 19 11 11 13 17 12 9 5 -0 6 5 4 12 7 20 8 7 10 8 6 4 6 3 5 5 4 6 7 7 4 3
3 6 9 10 7 9 11 9 9 9 8 10 15 6 15 12 7 -4 4 9 16 9 5 8 8 6 6 7 2 4 3 4 4 5 7 4 4 12
14 17 14 11 10 10 8 10 14 12 13 6 11 7 3 17 17 7 9 15 12 8 10 7 7 6 2 3 5 2 8 6 6 7 6 4 10 26
1 6 7 10 12 12 14 13 10 11 13 16 13 12 6 7 4 10 12 8 8 11 6 7 6 4 3 2 4 3 7 7 7 7 5 6 24 23
11 9 8 7 9 7 6 8 9 13 10 12 7 9 12 12 8 7 9 10 9 6 6 5 3 3 3 2 5 8 8 8 7 6 6 25 26 16
8 10 12 9 8 9 7 6 11 17 5 4 6 8 6 3 7 10 12 9 6 5 5 4 5 3 2 6 8 6 7 7 7 9 12 33 22 9
13 12 10 9 10 9 10 6 13 9 6 6 5 6 7 8 9 11 10 9 5 6 4 5 4 4 7 10 8 7 7 7 7 12 29 19 21 12
13 11 10 9 8 10 12 7 9 9 11 7 6 8 7 10 10 8 6 6 6 4 4 4 5 6 9 8 9 9 6 7 4 22 23 16 19 16
13 13 6 8 10 16 6 2 6 16 -3 5 12 12 14 11 9 6 7 6 5 4 4 7 8 8 10 8 6 5 6 5 13 28 15 22 19 21
14 14 5 7 11 19 5 11 6 10 12 6 11 12 9 3 6 6 6 5 5 6 6 7 8 9 10 7 7 6 10 19 27 19 20 21 24 14
9 11 14 2 7 6 4 -1 15 8 8 11 15 7 7 4 4 6 5 7 6 5 8 8 10 12 9 5 7 5 16 21 17 21 22 23 15 15
11 17 14 7 0 -3 9 22 2 15 10 9 8 5 4 4 4 6 8 6 5 7 9 11 12 9 5 8 3 14 24 19 21 26 15 14 14 15
Height
5773 5774 5776 5777 5777 5777 5776 5775 5774 5774 5772 5771 5768 5765 5762 5759 5757 5754 5752 5749 5746 5742 5739 5736 5731 5726 5721 5716 5712 5708 5702 5698 5693 5689 5685 5683 5678 5673
5760 5762 5764 5765 5766 5766 5765 5763 5762 5761 5760 5760 5757 5754 5752 5749 5745 5743 5740 5738 5735 5732 5728 5723 5719 5713 5708 5703 5698 5694 5690 5686 5681 5676 5672 5667 5663 5659
5748 5749 5751 5752 5754 5755 5753 5751 5751 5751 5749 5749 5746 5742 5739 5737 5733 5730 5728 5726 5723 5719 5714 5709 5705 5700 5695 5690 5686 5682 5677 5672 5668 5664 5659 5654 5649 5644
5735 5737 5739 5742 5744 5742 5739 5739 5738 5739 5738 5736 5733 5730 5726 5725 5722 5719 5717 5713 5710 5706 5701 5697 5691 5687 5682 5678 5674 5669 5665 5661 5656 5651 5646 5641 5636 5630
5725 5727 5730 5731 5731 5731 5730 5727 5726 5726 5725 5724 5720 5718 5715 5713 5710 5707 5704 5699 5696 5692 5689 5684 5680 5676 5670 5666 5660 5657 5653 5649 5645 5639 5633 5628 5622 5615
5713 5715 5716 5718 5717 5716 5714 5714 5713 5713 5712 5710 5708 5706 5702 5699 5696 5692 5689 5687 5683 5679 5676 5672 5668 5663 5658 5654 5650 5646 5642 5638 5633 5627 5621 5614 5607 5598
5703 5702 5703 5704 5703 5702 5702 5701 5699 5699 5697 5696 5694 5691 5688 5685 5683 5680 5677 5674 5672 5669 5665 5661 5656 5650 5647 5642 5639 5635 5631 5627 5620 5613 5606 5599 5590 5582
5689 5689 5689 5691 5690 5689 5688 5687 5686 5686 5685 5682 5681 5678 5676 5674 5671 5670 5667 5664 5661 5656 5652 5648 5644 5639 5635 5632 5628 5624 5618 5613 5606 5599 5591 5583 5574 5564
5674 5676 5675 5675 5675 5674 5674 5674 5673 5673 5672 5671 5669 5667 5665 5662 5660 5657 5654 5651 5649 5645 5642 5637 5632 5629 5624 5620 5615 5611 5605 5599 5592 5584 5576 5567 5556 5545
5660 5661 5662 5661 5661 5661 5661 5661 5661 5660 5660 5658 5656 5655 5653 5650 5648 5646 5644 5641 5639 5635 5632 5628 5623 5617 5612 5608 5603 5598 5592 5585 5577 5568 5560 5548 5537 5526
5649 5649 5650 5650 5648 5648 5649 5649 5649 5647 5646 5646 5645 5644 5643 5641 5639 5637 5634 5631 5629 5626 5622 5618 5614 5609 5602 5596 5591 5585 5578 5570 5561 5551 5541 5528 5516 5505
5639 5639 5639 5638 5638 5637 5637 5637 5636 5635 5635 5634 5633 5633 5633 5631 5628 5626 5623 5621 5618 5616 5611 5607 5602 5599 5595 5585 5578 5572 5565 5555 5545 5534 5520 5507 5493 5483
5628 5628 5629 5628 5627 5627 5627 5625 5625 5624 5623 5622 5622 5622 5621 5620 5617 5615 5613 5610 5607 5604 5601 5596 5591 5587 5581 5578 5567 5560 5552 5541 5530 5518 5503 5487 5473 5456
5616 5616 5616 5616 5616 5615 5615 5615 5615 5613 5612 5612 5612 5611 5610 5608 5606 5604 5602 5599 5596 5593 5590 5586 5580 5575 5570 5563 5556 5548 5538 5526 5514 5502 5489 5472 5458 5443
5604 5604 5605 5605 5605 5604 5604 5604 5603 5602 5602 5601 5601 5600 5598 5597 5595 5594 5591 5588 5585 5582 5578 5574 5569 5563 5556 5549 5543 5533 5526 5513 5499 5486 5474 5454 5439 5426
5591 5592 5593 5594 5594 5594 5594 5593 5592 5591 5591 5591 5590 5589 5587 5586 5585 5583 5580 5577 5574 5571 5567 5563 5557 5551 5542 5535 5528 5519 5509 5499 5486 5471 5460 5441 5420 5408
5579 5580 5582 5583 5583 5583 5582 5582 5582 5581 5581 5580 5579 5578 5577 5576 5573 5570 5567 5565 5562 5559 5556 5551 5545 5537 5529 5521 5513 5503 5493 5482 5468 5455 5442 5430 5407 5395
5567 5569 5571 5571 5572 5572 5572 5572 5571 5571 5570 5569 5569 5568 5566 5564 5562 5559 5556 5553 5550 5547 5543 5538 5532 5525 5516 5505 5496 5491 5478 5468 5456 5438 5423 5414 5402 5384
5556 5557 5559 5560 5560 5560 5560 5561 5560 5560 5559 5559 5558 5557 5555 5553 5551 5548 5545 5542 5539 5535 5531 5527 5521 5514 5505 5494 5478 5471 5467 5454 5442 5428 5413 5400 5389 5377
5543 5545 5547 5547 5547 5547 5548 5549 5548 5548 5548 5547 5546 5545 5543 5542 5540 5537 5534 5531 5527 5523 5519 5515 5509 5501 5493 5484 5475 5455 5445 5439 5428 5416 5406 5392 5379 5366
5529 5531 5531 5532 5534 5535 5535 5536 5536 5536 5536 5535 5534 5533 5532 5531 5529 5526 5523 5519 5515 5511 5505 5500 5495 5488 5479 5470 5461 5450 5432 5416 5407 5400 5392 5383 5373 5364
5513 5515 5517 5519 5521 5522 5522 5523 5523 5523 5522 5522 5522 5521 5521 5519 5517 5514 5511 5508 5504 5499 5493 5488 5481 5474 5467 5458 5448 5438 5425 5410 5393 5381 5376 5369 5363 5357
5498 5499 5502 5505 5506 5507 5508 5509 5509 5510 5510 5510 5509 5509 5508 5507 5505 5502 5499 5496 5492 5487 5481 5475 5469 5462 5454 5445 5435 5424 5412 5401 5392 5380 5365 5359 5352 5344